Location: Endfield
(51.6667°N, 0.0667°W)
Time: 14:49:21
(UTC+00:00)

Cosmos 1869 Rocket - Pass Details

Date: 19 May 2024
Orbit: 602 x 629 km, 82.5° (Epoch: 16 June)

Event Time Altitude Azimuth Distance (km) Brightness Sun altitude
Rises 23:34:38 0° 354° (N) 2,872 8.7 -18.1°
Reaches altitude 10° 23:36:59 10° 2° (N) 1,966 7.4 -18.2°
Maximum altitude 23:41:05 39° 73° (ENE) 916 4.5 -18.2°
Enters shadow 23:43:05 25° 125° (SE) 1,253 4.8 -18.2°
